Location: Unspecified
(29.9680°N, 0.0000°E)
Time: 17:40:36
(UTC+00:00)

Explorer 7 - Pass Details

Date: 03 July 2019
Orbit: 485 x 680 km, 50.3° (Epoch: 21 July)

Event Time Altitude Azimuth Distance (km) Brightness Sun altitude
Rises 11:18:28 0° 316° (NW) 2,879 10.4 77.6°
Reaches altitude 10° 11:20:44 10° 318° (NW) 2,002 9.7 78.0°
Maximum altitude 11:25:21 73° 43° (NE) 682 9.0 78.8°
Drops below altitude 10° 11:30:11 10° 129° (SE) 2,085 10.1 79.7°
Sets 11:32:34 0° 131° (SE) 3,009 10.7 80.0°
